Date String (YYYY-MM-DD hh:mm:ss) UTC,Instrument flags,absolute air pressure of the measurement (hPa),sample flow rate (lpm),inlet stack bypass flow (lpm),air temperature of the measurement (°C),ambient temperature measured by the external sensor (°C),aerosol sample conditioner tube jacket temperature (°C),OPC LED temperature (°C),internal box temperature (°C),relative humidity of the measurement (%),span deviation,mass concentration of particles derived from Lorenz-Mie calculation of OPC scattering (μg/m³),mass concentration of particles derived from Lorenz-Mie calculation of OPC scattering (μg/m³),mass concentration of particles derived from Lorenz-Mie calculation of OPC scattering (μg/m³)
DateTimeUTC,F1_M11,P_M11,Q1_M11,Q2_M11,T1_M11,T2_M11,T3_M11,T4_M11,T5_M11,U1_M11,ZSPAN_M11,X2_M11,X0_M11,X1_M11
2023-08-16 06:00:00,SystemResetWarning,0834.3,5.00,000.00,029.1,026.3,000.0,037.6,030.5,17.0,0000.0,0005.18,0014.54,0004.39
2023-08-16 06:01:00,SystemResetWarning,0834.8,5.00,000.00,029.1,026.7,000.0,037.6,030.6,17.1,0000.0,0005.24,0014.51,0004.38
2023-08-16 06:02:00,SystemResetWarning,0834.3,5.00,000.00,029.1,027.0,000.0,037.6,030.7,17.1,0000.0,0005.20,0014.77,0004.38
2023-08-16 06:03:00,SystemResetWarning,0834.5,5.00,000.00,029.1,027.3,000.0,037.6,030.8,17.0,0000.0,0005.16,0015.43,0004.38
2023-08-16 06:04:00,SystemResetWarning,0834.3,4.99,000.00,029.2,027.5,000.0,037.7,030.8,17.0,0000.0,0005.18,0015.77,0004.38
2023-08-16 06:05:00,SystemResetWarning,0834.3,5.00,000.00,029.2,027.7,000.0,037.7,030.9,16.9,0000.0,0005.19,0015.53,0004.38
2023-08-16 06:06:00,SystemResetWarning,0834.3,5.00,000.00,029.2,027.8,000.0,037.7,030.9,16.8,0000.0,0005.25,0015.20,0004.38
2023-08-16 06:07:00,SystemResetWarning,0834.3,5.01,000.00,029.3,027.9,000.0,037.7,031.0,17.0,0000.0,0005.32,0015.51,0004.38
2023-08-16 06:08:00,SystemResetWarning,0834.3,5.00,000.00,029.3,028.1,000.0,037.8,031.0,16.7,0000.0,0005.33,0014.63,0004.39
2023-08-16 06:09:00,SystemResetWarning,0834.3,5.00,000.00,029.3,028.1,000.0,037.8,031.1,16.8,0000.0,0005.31,0014.32,0004.39
2023-08-16 06:10:00,SystemResetWarning,0834.3,5.00,000.00,029.4,028.2,000.0,037.8,031.1,16.9,0000.0,0005.30,0014.43,0004.38
2023-08-16 06:11:00,SystemResetWarning,0834.4,4.99,000.00,029.4,028.2,000.0,037.8,031.1,16.7,0000.0,0005.30,0014.83,0004.38
2023-08-16 06:12:00,SystemResetWarning,0834.3,4.98,000.00,029.4,026.8,000.0,037.7,030.9,16.8,0000.0,0005.23,0014.26,0004.39
2023-08-16 06:13:00,SystemResetWarning,0834.4,5.01,000.00,029.3,025.5,000.0,037.6,030.6,16.8,0000.0,0005.19,0013.82,0004.39
2023-08-16 06:14:00,SystemResetWarning,0834.3,5.01,000.00,029.2,025.5,000.0,037.6,030.4,16.7,0000.0,0005.19,0013.23,0004.39
2023-08-16 06:15:00,SystemResetWarning,0834.6,5.00,000.00,029.1,025.7,000.0,037.6,030.4,16.9,0000.0,0005.21,0012.54,0004.39
2023-08-16 06:16:00,SystemResetWarning,0834.3,5.00,000.00,029.1,026.1,000.0,037.6,030.5,16.8,0000.0,0005.22,0012.63,0004.39
2023-08-16 06:17:00,SystemResetWarning,0834.7,5.00,000.00,029.1,026.5,000.0,037.7,030.6,16.9,0000.0,0005.18,0013.54,0004.37
2023-08-16 06:18:00,SystemResetWarning,0834.6,5.01,000.00,029.1,026.8,000.0,037.7,030.7,16.9,0000.0,0005.12,0013.40,0004.36
2023-08-16 06:19:00,SystemResetWarning,0834.3,5.00,000.00,029.1,027.1,000.0,037.7,030.8,17.3,0000.0,0005.13,0013.08,0004.35
2023-08-16 06:20:00,SystemResetWarning,0834.4,5.00,000.00,029.2,027.4,000.0,037.7,030.8,17.2,0000.0,0005.14,0012.45,0004.35
2023-08-16 06:21:00,SystemResetWarning,0834.4,5.00,000.00,029.2,027.6,000.0,037.7,030.9,16.9,0000.0,0005.15,0012.92,0004.34
2023-08-16 06:22:00,SystemResetWarning,0834.5,5.01,000.00,029.2,027.7,000.0,037.7,030.9,16.9,0000.0,0005.15,0013.83,0004.34
2023-08-16 06:23:00,SystemResetWarning,0834.6,5.00,000.00,029.3,027.9,000.0,037.8,031.0,16.9,0000.0,0005.15,0013.54,0004.33
2023-08-16 06:24:00,SystemResetWarning,0834.6,5.00,000.00,029.3,028.0,000.0,037.8,031.0,17.1,0000.0,0005.18,0013.17,0004.34
2023-08-16 06:25:00,SystemResetWarning,0834.4,5.00,000.00,029.3,028.1,000.0,037.8,031.1,17.0,0000.0,0005.23,0014.20,0004.35
2023-08-16 06:26:00,SystemResetWarning,0834.3,4.99,000.00,029.4,028.2,000.0,037.8,031.1,16.7,0000.0,0005.19,0014.78,0004.35
2023-08-16 06:27:00,SystemResetWarning,0834.3,4.99,000.00,029.4,028.3,000.0,037.8,031.1,16.7,0000.0,0005.20,0014.43,0004.36
2023-08-16 06:28:00,SystemResetWarning,0834.2,4.99,000.00,029.4,028.3,000.0,037.9,031.2,16.7,0000.0,0005.24,0014.06,0004.39
2023-08-16 06:29:00,SystemResetWarning,0834.2,5.00,000.00,029.5,027.9,000.0,037.8,031.1,16.6,0000.0,0005.25,0014.58,0004.41
2023-08-16 06:30:00,SystemResetWarning,0834.2,5.00,000.00,029.4,026.0,000.0,037.7,030.8,16.7,0000.0,0005.22,0014.96,0004.42
2023-08-16 06:31:00,SystemResetWarning,0834.1,5.01,000.00,029.4,025.4,000.0,037.6,030.7,17.0,0000.0,0005.23,0015.31,0004.42
2023-08-16 06:32:00,SystemResetWarning,0834.1,5.01,000.00,029.3,025.6,000.0,037.6,030.5,16.8,0000.0,0005.25,0014.96,0004.43
2023-08-16 06:33:00,SystemResetWarning,0834.1,5.00,000.00,029.2,025.9,000.0,037.7,030.5,17.0,0000.5,0005.27,0014.26,0004.44
2023-08-16 06:34:00,SystemResetWarning,0834.1,5.00,000.00,029.2,026.3,000.0,037.7,030.6,17.1,0001.1,0005.28,0014.07,0004.45
2023-08-16 06:35:00,SystemResetWarning,0834.1,4.99,000.00,029.2,026.7,000.0,037.7,030.7,17.1,0000.0,0005.25,0014.48,0004.45
2023-08-16 06:36:00,SystemResetWarning,0834.1,5.00,000.00,029.2,027.0,000.0,037.7,030.8,17.2,0000.0,0005.22,0013.60,0004.45
2023-08-16 06:37:00,SystemResetWarning,0834.1,5.00,000.00,029.2,027.2,000.0,037.7,030.8,17.1,0000.2,0005.22,0013.27,0004.45
2023-08-16 06:38:00,SystemResetWarning,0834.1,5.00,000.00,029.2,027.5,000.0,037.8,030.9,17.1,0001.2,0005.20,0013.97,0004.45
2023-08-16 06:39:00,SystemResetWarning,0834.1,5.00,000.00,029.3,027.6,000.0,037.8,030.9,16.8,0001.1,0005.17,0013.59,0004.44
2023-08-16 06:40:00,SystemResetWarning,0834.1,5.01,000.00,029.3,027.8,000.0,037.8,031.0,16.8,0000.2,0005.19,0013.07,0004.45
2023-08-16 06:41:00,SystemResetWarning,0834.0,5.00,000.00,029.3,027.9,000.0,037.8,031.0,16.9,0000.0,0005.22,0012.62,0004.45
2023-08-16 06:42:00,SystemResetWarning,0834.0,4.99,000.00,029.3,028.0,000.0,037.8,031.0,16.9,0000.0,0005.22,0012.60,0004.45
2023-08-16 06:43:00,SystemResetWarning,0834.1,4.99,000.00,029.4,028.1,000.0,037.8,031.1,16.9,0000.0,0005.18,0012.25,0004.45
2023-08-16 06:44:00,SystemResetWarning,0834.0,4.99,000.00,029.4,028.2,000.0,037.9,031.1,16.9,0000.0,0005.13,0011.62,0004.44
2023-08-16 06:45:00,SystemResetWarning,0834.0,5.01,000.00,029.4,028.3,000.0,037.9,031.1,17.1,0000.0,0005.13,0011.61,0004.44
2023-08-16 06:46:00,SystemResetWarning,0834.0,5.01,000.00,029.5,028.3,000.0,037.9,031.2,16.9,0000.0,0005.21,0011.46,0004.45
2023-08-16 06:47:00,SystemResetWarning,0834.0,4.98,000.00,029.5,027.2,000.0,037.8,031.0,16.6,0000.0,0005.24,0011.27,0004.44
2023-08-16 06:48:00,SystemResetWarning,0834.0,5.01,000.00,029.4,025.6,000.0,037.7,030.8,16.7,0000.0,0005.24,0010.95,0004.44
2023-08-16 06:49:00,SystemResetWarning,0834.0,5.01,000.00,029.4,025.4,000.0,037.6,030.6,17.0,0000.0,0005.26,0010.90,0004.44
2023-08-16 06:50:00,SystemResetWarning,0834.0,5.00,000.00,029.3,025.7,000.0,037.7,030.5,17.0,0000.0,0005.30,0011.00,0004.44
2023-08-16 06:51:00,SystemResetWarning,0834.0,5.00,000.00,029.2,026.0,000.0,037.7,030.6,17.1,0000.0,0005.27,0011.75,0004.42
2023-08-16 06:52:00,SystemResetWarning,0833.9,5.00,000.00,029.2,026.4,000.0,037.7,030.6,17.2,0000.0,0005.29,0011.88,0004.42
2023-08-16 06:53:00,SystemResetWarning,0833.9,5.01,000.00,029.2,026.8,000.0,037.7,030.7,17.3,0000.0,0005.27,0011.97,0004.41
2023-08-16 06:54:00,SystemResetWarning,0833.9,5.00,000.00,029.2,027.1,000.0,037.8,030.8,17.4,0000.0,0005.28,0012.58,0004.40
2023-08-16 06:55:00,SystemResetWarning,0833.9,5.00,000.00,029.2,027.3,000.0,037.8,030.8,17.5,0000.0,0005.28,0012.56,0004.39
2023-08-16 06:56:00,SystemResetWarning,0833.9,4.99,000.00,029.3,027.5,000.0,037.8,030.9,17.5,0000.0,0005.30,0012.61,0004.39
2023-08-16 06:57:00,SystemResetWarning,0833.8,4.99,000.00,029.3,027.7,000.0,037.8,030.9,17.4,0000.0,0005.27,0012.66,0004.38
2023-08-16 06:58:00,SystemResetWarning,0833.8,5.00,000.00,029.3,027.8,000.0,037.8,031.0,17.3,0000.0,0005.24,0012.64,0004.39
2023-08-16 06:59:00,SystemResetWarning,0833.9,5.00,000.00,029.3,027.9,000.0,037.8,031.0,17.3,0000.4,0005.22,0012.68,0004.40
